User: anonymous   Login
Location: Albany
(35.0000°S, 118.0000°E)
Time: 17:37:03
(UTC-05:00)
Language:

Cosmos 1933 - Orbit

View from above orbital plane
View from above orbital plane
View from above satellite
View from above satellite

Ground track
Ground track

The orbit data is extracted from the following two-line orbital elements,

1 18958U 88020A   15061.13873243  .00002788  00000-0  21203-3 0  9999
2 18958 082.5313 191.8285 0010910 247.8033 112.2035 15.01738328465677
Epoch (UTC): 02 March 2015 03:19:46
Eccentricity: 0.0010910
inclination: 82.5313°
perigee height: 554 km
apogee height: 569 km
right ascension of ascending node: 191.8285°
argument of perigee: 247.8033°
revolutions per day: 15.01738328
mean anomaly at epoch: 112.2035°
orbit number at epoch: 46567

The dashed part of the orbit path shows where the satellite is in the earth's shadow,  

DLR